﻿測定場所 (Monitoring sites),日付 (Measurement date),時間 (Measurement time),線量率 最大値 (max) μGy/h,線量率 最小値 (min) μGy/h,線量率 平均値 (average) μGy/h,
江戸川 (Edogawa),2012-03-25,23:01～24:00,0.127,0.114,0.121,
江戸川 (Edogawa),2012-03-25,22:01～23:00,0.132,0.115,0.122,
江戸川 (Edogawa),2012-03-25,21:01～22:00,0.129,0.115,0.122,
江戸川 (Edogawa),2012-03-25,20:01～21:00,0.129,0.116,0.122,
江戸川 (Edogawa),2012-03-25,19:01～20:00,0.128,0.115,0.122,
江戸川 (Edogawa),2012-03-25,18:01～19:00,0.133,0.116,0.123,
江戸川 (Edogawa),2012-03-25,17:01～18:00,0.128,0.116,0.122,
江戸川 (Edogawa),2012-03-25,16:01～17:00,0.131,0.116,0.123,
江戸川 (Edogawa),2012-03-25,15:01～16:00,0.129,0.118,0.122,
江戸川 (Edogawa),2012-03-25,14:01～15:00,0.132,0.117,0.124,
江戸川 (Edogawa),2012-03-25,13:01～14:00,0.134,0.117,0.125,
江戸川 (Edogawa),2012-03-25,12:01～13:00,0.131,0.117,0.124,
江戸川 (Edogawa),2012-03-25,11:01～12:00,0.132,0.118,0.124,
江戸川 (Edogawa),2012-03-25,10:01～11:00,0.130,0.118,0.123,
江戸川 (Edogawa),2012-03-25,09:01～10:00,0.131,0.116,0.122,
江戸川 (Edogawa),2012-03-25,08:01～09:00,0.128,0.115,0.122,
江戸川 (Edogawa),2012-03-25,07:01～08:00,0.127,0.114,0.121,
江戸川 (Edogawa),2012-03-25,06:01～07:00,0.126,0.115,0.121,
江戸川 (Edogawa),2012-03-25,05:01～06:00,0.125,0.113,0.120,
江戸川 (Edogawa),2012-03-25,04:01～05:00,0.127,0.114,0.120,
江戸川 (Edogawa),2012-03-25,03:01～04:00,0.130,0.113,0.121,
江戸川 (Edogawa),2012-03-25,02:01～03:00,0.127,0.113,0.120,
江戸川 (Edogawa),2012-03-25,01:01～02:00,0.126,0.112,0.119,
江戸川 (Edogawa),2012-03-25,00:01～01:00,0.126,0.114,0.120,
江戸川 (Edogawa),2012-03-24,23:01～24:00,0.126,0.113,0.120,
江戸川 (Edogawa),2012-03-24,22:01～23:00,0.127,0.114,0.120,
江戸川 (Edogawa),2012-03-24,21:01～22:00,0.126,0.115,0.120,
江戸川 (Edogawa),2012-03-24,20:01～21:00,0.126,0.109,0.120,
江戸川 (Edogawa),2012-03-24,19:01～20:00,0.127,0.114,0.120,
江戸川 (Edogawa),2012-03-24,18:01～19:00,0.127,0.115,0.121,
江戸川 (Edogawa),2012-03-24,17:01～18:00,0.128,0.116,0.122,
江戸川 (Edogawa),2012-03-24,16:01～17:00,0.130,0.115,0.122,
江戸川 (Edogawa),2012-03-24,15:01～16:00,0.129,0.116,0.123,
江戸川 (Edogawa),2012-03-24,14:01～15:00,0.136,0.120,0.128,
江戸川 (Edogawa),2012-03-24,13:01～14:00,0.138,0.125,0.132,
江戸川 (Edogawa),2012-03-24,12:01～13:00,0.134,0.116,0.126,
江戸川 (Edogawa),2012-03-24,11:01～12:00,0.131,0.118,0.125,
江戸川 (Edogawa),2012-03-24,10:01～11:00,0.134,0.120,0.126,
江戸川 (Edogawa),2012-03-24,09:01～10:00,0.133,0.122,0.128,
江戸川 (Edogawa),2012-03-24,08:01～09:00,0.130,0.118,0.124,
江戸川 (Edogawa),2012-03-24,07:01～08:00,0.132,0.119,0.126,
江戸川 (Edogawa),2012-03-24,06:01～07:00,0.134,0.119,0.125,
江戸川 (Edogawa),2012-03-24,05:01～06:00,0.130,0.117,0.122,
江戸川 (Edogawa),2012-03-24,04:01～05:00,0.128,0.115,0.122,
江戸川 (Edogawa),2012-03-24,03:01～04:00,0.129,0.118,0.123,
江戸川 (Edogawa),2012-03-24,02:01～03:00,0.137,0.119,0.128,
江戸川 (Edogawa),2012-03-24,01:01～02:00,0.141,0.124,0.133,
江戸川 (Edogawa),2012-03-24,00:01～01:00,0.143,0.123,0.131,
江戸川 (Edogawa),2012-03-23,23:01～24:00,0.141,0.125,0.133,
江戸川 (Edogawa),2012-03-23,22:01～23:00,0.143,0.126,0.132,
江戸川 (Edogawa),2012-03-23,21:01～22:00,0.137,0.124,0.130,
江戸川 (Edogawa),2012-03-23,20:01～21:00,0.132,0.121,0.127,
江戸川 (Edogawa),2012-03-23,19:01～20:00,0.133,0.118,0.127,
江戸川 (Edogawa),2012-03-23,18:01～19:00,0.134,0.122,0.129,
江戸川 (Edogawa),2012-03-23,17:01～18:00,0.136,0.122,0.130,
江戸川 (Edogawa),2012-03-23,16:01～17:00,0.132,0.118,0.126,
江戸川 (Edogawa),2012-03-23,15:01～16:00,0.135,0.118,0.124,
江戸川 (Edogawa),2012-03-23,14:01～15:00,0.136,0.122,0.128,
江戸川 (Edogawa),2012-03-23,13:01～14:00,0.143,0.126,0.134,
江戸川 (Edogawa),2012-03-23,12:01～13:00,0.145,0.127,0.136,
江戸川 (Edogawa),2012-03-23,11:01～12:00,0.143,0.125,0.134,
江戸川 (Edogawa),2012-03-23,10:01～11:00,0.134,0.122,0.129,
江戸川 (Edogawa),2012-03-23,09:01～10:00,0.132,0.120,0.125,
江戸川 (Edogawa),2012-03-23,08:01～09:00,0.132,0.118,0.125,
江戸川 (Edogawa),2012-03-23,07:01～08:00,0.132,0.116,0.124,
江戸川 (Edogawa),2012-03-23,06:01～07:00,0.131,0.117,0.124,
江戸川 (Edogawa),2012-03-23,05:01～06:00,0.133,0.116,0.123,
江戸川 (Edogawa),2012-03-23,04:01～05:00,0.131,0.118,0.124,
江戸川 (Edogawa),2012-03-23,03:01～04:00,0.131,0.115,0.123,
江戸川 (Edogawa),2012-03-23,02:01～03:00,0.131,0.117,0.123,
江戸川 (Edogawa),2012-03-23,01:01～02:00,0.133,0.116,0.124,
江戸川 (Edogawa),2012-03-23,00:01～01:00,0.129,0.118,0.124,
江戸川 (Edogawa),2012-03-22,23:01～24:00,0.132,0.118,0.124,
江戸川 (Edogawa),2012-03-22,22:01～23:00,0.131,0.119,0.124,
江戸川 (Edogawa),2012-03-22,21:01～22:00,0.134,0.119,0.125,
江戸川 (Edogawa),2012-03-22,20:01～21:00,0.132,0.117,0.124,
江戸川 (Edogawa),2012-03-22,19:01～20:00,0.131,0.118,0.124,
江戸川 (Edogawa),2012-03-22,18:01～19:00,0.133,0.119,0.125,
江戸川 (Edogawa),2012-03-22,17:01～18:00,0.132,0.118,0.125,
江戸川 (Edogawa),2012-03-22,16:01～17:00,0.132,0.119,0.125,
江戸川 (Edogawa),2012-03-22,15:01～16:00,0.132,0.117,0.126,
江戸川 (Edogawa),2012-03-22,14:01～15:00,0.133,0.120,0.126,
江戸川 (Edogawa),2012-03-22,13:01～14:00,0.135,0.119,0.126,
江戸川 (Edogawa),2012-03-22,12:01～13:00,0.135,0.119,0.125,
江戸川 (Edogawa),2012-03-22,11:01～12:00,0.132,0.120,0.125,
江戸川 (Edogawa),2012-03-22,10:01～11:00,0.132,0.120,0.125,
江戸川 (Edogawa),2012-03-22,09:01～10:00,0.132,0.118,0.125,
江戸川 (Edogawa),2012-03-22,08:01～09:00,0.130,0.118,0.124,
江戸川 (Edogawa),2012-03-22,07:01～08:00,0.128,0.116,0.122,
江戸川 (Edogawa),2012-03-22,06:01～07:00,0.131,0.116,0.123,
江戸川 (Edogawa),2012-03-22,05:01～06:00,0.131,0.116,0.122,
江戸川 (Edogawa),2012-03-22,04:01～05:00,0.128,0.114,0.122,
江戸川 (Edogawa),2012-03-22,03:01～04:00,0.132,0.116,0.123,
江戸川 (Edogawa),2012-03-22,02:01～03:00,0.130,0.117,0.123,
江戸川 (Edogawa),2012-03-22,01:01～02:00,0.128,0.117,0.123,
江戸川 (Edogawa),2012-03-22,00:01～01:00,0.129,0.116,0.122,
江戸川 (Edogawa),2012-03-21,23:01～24:00,0.131,0.114,0.123,
江戸川 (Edogawa),2012-03-21,22:01～23:00,0.131,0.118,0.123,
江戸川 (Edogawa),2012-03-21,21:01～22:00,0.128,0.118,0.123,
江戸川 (Edogawa),2012-03-21,20:01～21:00,0.128,0.116,0.122,
江戸川 (Edogawa),2012-03-21,19:01～20:00,0.131,0.118,0.123,
江戸川 (Edogawa),2012-03-21,18:01～19:00,0.130,0.117,0.124,
江戸川 (Edogawa),2012-03-21,17:01～18:00,0.131,0.118,0.124,
江戸川 (Edogawa),2012-03-21,16:01～17:00,0.129,0.118,0.124,
江戸川 (Edogawa),2012-03-21,15:01～16:00,0.132,0.117,0.124,
江戸川 (Edogawa),2012-03-21,14:01～15:00,0.131,0.119,0.125,
江戸川 (Edogawa),2012-03-21,13:01～14:00,0.132,0.117,0.124,
江戸川 (Edogawa),2012-03-21,12:01～13:00,0.131,0.118,0.124,
江戸川 (Edogawa),2012-03-21,11:01～12:00,0.129,0.119,0.124,
江戸川 (Edogawa),2012-03-21,10:01～11:00,0.132,0.118,0.123,
江戸川 (Edogawa),2012-03-21,09:01～10:00,0.128,0.116,0.123,
江戸川 (Edogawa),2012-03-21,08:01～09:00,0.129,0.116,0.123,
江戸川 (Edogawa),2012-03-21,07:01～08:00,0.127,0.114,0.122,
江戸川 (Edogawa),2012-03-21,06:01～07:00,0.128,0.115,0.122,
江戸川 (Edogawa),2012-03-21,05:01～06:00,0.129,0.114,0.122,
江戸川 (Edogawa),2012-03-21,04:01～05:00,0.129,0.114,0.122,
江戸川 (Edogawa),2012-03-21,03:01～04:00,0.129,0.117,0.123,
江戸川 (Edogawa),2012-03-21,02:01～03:00,0.130,0.114,0.123,
江戸川 (Edogawa),2012-03-21,01:01～02:00,0.127,0.115,0.122,
江戸川 (Edogawa),2012-03-21,00:01～01:00,0.128,0.117,0.123,
江戸川 (Edogawa),2012-03-20,23:01～24:00,0.130,0.117,0.122,
江戸川 (Edogawa),2012-03-20,22:01～23:00,0.130,0.115,0.123,
江戸川 (Edogawa),2012-03-20,21:01～22:00,0.130,0.115,0.123,
江戸川 (Edogawa),2012-03-20,20:01～21:00,0.127,0.115,0.122,
江戸川 (Edogawa),2012-03-20,19:01～20:00,0.129,0.115,0.123,
江戸川 (Edogawa),2012-03-20,18:01～19:00,0.129,0.113,0.122,
江戸川 (Edogawa),2012-03-20,17:01～18:00,0.132,0.117,0.124,
江戸川 (Edogawa),2012-03-20,16:01～17:00,0.129,0.116,0.123,
江戸川 (Edogawa),2012-03-20,15:01～16:00,0.129,0.116,0.123,
江戸川 (Edogawa),2012-03-20,14:01～15:00,0.130,0.115,0.123,
江戸川 (Edogawa),2012-03-20,13:01～14:00,0.129,0.117,0.123,
江戸川 (Edogawa),2012-03-20,12:01～13:00,0.132,0.118,0.124,
江戸川 (Edogawa),2012-03-20,11:01～12:00,0.132,0.116,0.124,
江戸川 (Edogawa),2012-03-20,10:01～11:00,0.132,0.118,0.124,
江戸川 (Edogawa),2012-03-20,09:01～10:00,0.132,0.117,0.122,
江戸川 (Edogawa),2012-03-20,08:01～09:00,0.133,0.116,0.122,
江戸川 (Edogawa),2012-03-20,07:01～08:00,0.127,0.116,0.122,
江戸川 (Edogawa),2012-03-20,06:01～07:00,0.128,0.116,0.121,
江戸川 (Edogawa),2012-03-20,05:01～06:00,0.128,0.116,0.122,
江戸川 (Edogawa),2012-03-20,04:01～05:00,0.130,0.113,0.122,
江戸川 (Edogawa),2012-03-20,03:01～04:00,0.128,0.117,0.123,
江戸川 (Edogawa),2012-03-20,02:01～03:00,0.130,0.115,0.122,
江戸川 (Edogawa),2012-03-20,01:01～02:00,0.129,0.116,0.122,
江戸川 (Edogawa),2012-03-20,00:01～01:00,0.128,0.114,0.122,
江戸川 (Edogawa),2012-03-19,23:01～24:00,0.127,0.116,0.122,
江戸川 (Edogawa),2012-03-19,22:01～23:00,0.134,0.115,0.122,
江戸川 (Edogawa),2012-03-19,21:01～22:00,0.131,0.118,0.122,
江戸川 (Edogawa),2012-03-19,20:01～21:00,0.126,0.117,0.122,
江戸川 (Edogawa),2012-03-19,19:01～20:00,0.127,0.115,0.122,
江戸川 (Edogawa),2012-03-19,18:01～19:00,0.128,0.117,0.122,
江戸川 (Edogawa),2012-03-19,17:01～18:00,0.128,0.116,0.122,
江戸川 (Edogawa),2012-03-19,16:01～17:00,0.129,0.115,0.123,
江戸川 (Edogawa),2012-03-19,15:01～16:00,0.129,0.117,0.123,
江戸川 (Edogawa),2012-03-19,14:01～15:00,0.130,0.116,0.123,
江戸川 (Edogawa),2012-03-19,13:01～14:00,0.129,0.117,0.122,
江戸川 (Edogawa),2012-03-19,12:01～13:00,0.129,0.114,0.124,
江戸川 (Edogawa),2012-03-19,11:01～12:00,0.129,0.116,0.122,
江戸川 (Edogawa),2012-03-19,10:01～11:00,0.127,0.112,0.121,
江戸川 (Edogawa),2012-03-19,09:01～10:00,0.130,0.115,0.122,
江戸川 (Edogawa),2012-03-19,08:01～09:00,0.128,0.114,0.121,
江戸川 (Edogawa),2012-03-19,07:01～08:00,0.124,0.114,0.120,
江戸川 (Edogawa),2012-03-19,06:01～07:00,0.125,0.114,0.120,
江戸川 (Edogawa),2012-03-19,05:01～06:00,0.127,0.115,0.120,
江戸川 (Edogawa),2012-03-19,04:01～05:00,0.126,0.114,0.121,
江戸川 (Edogawa),2012-03-19,03:01～04:00,0.130,0.114,0.122,
江戸川 (Edogawa),2012-03-19,02:01～03:00,0.128,0.117,0.122,
江戸川 (Edogawa),2012-03-19,01:01～02:00,0.130,0.115,0.121,
江戸川 (Edogawa),2012-03-19,00:01～01:00,0.128,0.114,0.122,
